Vorticity
11 5 5 5 3 6 3 -2 -4 -4 -9 -16 2 21 15 7 12 12 -4 11 12 10 12 13 10 10 9 8 6 3 3 11 14 13 14 12 11 11 12 10 8 9 8 8
6 15 14 16 19 21 9 9 7 13 13 43 7 -1 7 16 -2 -1 12 6 2 5 8 11 10 8 7 7 7 8 9 8 12 12 11 11 10 11 11 9 8 9 9 8
17 10 2 48 57 51 27 15 18 24 21 4 6 18 3 -5 4 13 7 -2 -1 9 9 18 10 10 8 7 7 8 8 9 7 10 11 14 12 10 11 12 8 9 9 9
3 33 18 8 9 -24 26 10 8 8 8 13 5 -4 -17 8 7 8 11 13 17 19 12 7 9 11 7 9 10 10 9 8 7 11 12 10 13 13 12 14 11 7 6 9
2 5 -16 36 24 36 14 9 8 15 8 0 -4 -5 12 -1 16 19 17 13 13 12 11 10 10 10 10 11 9 10 10 7 10 13 13 11 12 12 10 13 13 10 12 2
12 8 2 -9 5 5 -3 17 15 11 -7 -10 5 10 14 18 10 10 10 14 16 17 18 19 19 18 19 18 17 14 16 16 15 13 13 13 13 11 12 15 20 5 16 -1
6 -5 15 9 9 4 11 13 7 -24 -3 6 11 16 18 12 7 7 9 9 7 8 11 12 13 14 12 12 12 14 14 15 13 12 11 12 12 13 16 16 14 16 13 3
18 5 17 18 25 12 4 -0 -25 0 6 12 19 20 10 6 6 8 8 7 7 9 9 5 5 5 5 6 7 8 10 11 12 14 15 14 13 13 15 16 18 14 6 13
-12 7 -11 -4 1 -8 -23 3 2 -4 5 5 22 14 5 3 6 7 6 6 5 4 3 -0 3 4 4 5 7 7 8 9 12 8 8 13 17 15 17 17 19 17 20 -6
9 20 9 16 -0 6 7 -14 3 9 3 13 22 6 1 -1 -2 4 4 3 3 4 5 5 4 1 2 4 6 8 7 5 7 18 24 13 11 15 19 18 24 12 8 10
5 9 8 2 9 16 19 14 7 3 21 21 7 5 4 3 1 3 -3 -2 4 6 10 11 12 12 13 16 14 9 6 7 8 10 13 19 18 17 20 19 17 13 8 6
16 19 17 8 8 8 6 6 11 23 16 3 4 3 3 2 0 -3 -3 -2 0 1 -1 0 4 5 5 1 1 18 12 5 3 5 4 10 21 16 15 15 15 11 8 10
13 9 3 0 3 12 13 18 20 10 6 5 1 2 1 1 -1 1 3 3 2 -0 2 0 -1 8 13 20 12 8 14 14 10 14 11 7 12 21 12 11 13 12 10 10
6 5 20 29 16 16 16 9 8 6 4 4 4 3 0 4 6 8 6 2 3 9 13 19 20 21 26 25 20 17 11 11 14 15 11 5 7 22 16 10 11 11 14 13
27 15 10 12 13 9 7 7 6 6 3 2 3 1 1 -0 -3 -7 0 15 18 14 15 16 17 19 17 15 22 14 11 10 11 12 11 10 3 7 22 18 12 9 14 14
6 8 8 10 9 7 5 4 5 5 3 3 2 3 -1 -1 -3 13 20 19 20 21 21 18 18 17 14 14 20 22 17 14 14 10 8 12 9 2 14 19 8 12 14 13
7 7 8 8 9 5 4 4 4 4 5 6 3 1 1 19 18 21 21 16 10 17 20 25 25 21 15 19 23 24 23 22 13 15 13 12 12 8 4 20 19 22 11 8
8 6 5 6 6 5 6 5 3 5 3 -6 7 16 15 16 17 18 15 7 12 22 20 24 17 14 21 25 23 20 19 21 16 10 17 14 15 10 3 -5 -1 7 14 12
6 5 5 4 2 5 6 4 2 -4 9 22 17 18 12 14 15 9 13 12 19 24 18 15 18 21 18 20 17 13 15 17 14 12 17 18 15 15 7 2 2 5 6 13
4 4 7 7 3 -0 5 -5 17 20 7 8 2 10 17 16 4 18 15 12 23 17 17 20 18 12 12 15 23 22 18 18 19 20 21 19 15 16 16 7 8 1 6 10
2 -1 2 3 -3 -6 13 23 8 11 6 10 3 22 12 15 11 20 14 16 23 18 14 16 15 13 16 18 12 17 16 11 22 21 22 21 23 16 17 18 4 13 7 4
-8 -7 -9 -11 3 18 13 8 10 8 6 7 8 20 10 9 15 18 13 21 19 17 14 13 15 13 8 8 8 6 7 10 11 16 23 20 16 17 19 16 8 16 -1 2
-6 -3 2 16 10 10 10 5 10 5 9 4 9 18 14 6 16 20 22 14 19 10 12 8 8 2 4 12 16 15 13 13 13 10 19 22 17 15 15 18 12 6 16 -7
10 11 18 22 19 16 14 7 8 6 12 4 11 18 14 6 20 20 19 17 17 13 20 14 15 6 16 19 16 15 18 22 24 17 9 21 18 14 10 24 14 7 27 -3
10 12 17 16 4 8 7 16 12 14 11 7 16 16 12 6 22 11 8 10 19 16 20 -2 10 2 15 13 8 13 20 16 28 23 9 16 17 13 13 14 14 12 12 5
20 12 10 15 16 14 20 18 17 12 6 8 11 16 14 3 21 3 13 14 8 -5 3 16 16 9 13 19 13 13 15 18 26 24 12 9 19 13 12 11 25 19 5 1
7 14 23 22 21 14 19 21 12 7 8 6 5 12 14 9 17 10 6 13 13 13 13 21 15 10 15 17 14 18 18 15 26 23 14 11 16 17 13 15 12 12 16 13
Height
3111 3110 3109 3108 3108 3106 3105 3104 3106 3103 3102 3104 3100 3094 3091 3090 3089 3086 3084 3080 3076 3071 3067 3064 3061 3058 3055 3053 3050 3048 3045 3042 3038 3034 3030 3027 3025 3022 3020 3018 3016 3013 3011 3009
3105 3105 3103 3099 3098 3097 3097 3097 3096 3097 3094 3096 3092 3090 3088 3088 3085 3082 3078 3074 3071 3067 3063 3059 3056 3053 3050 3048 3045 3042 3038 3034 3030 3026 3023 3020 3017 3014 3012 3010 3008 3005 3004 3001
3102 3100 3098 3092 3085 3085 3087 3089 3091 3091 3093 3089 3087 3086 3085 3084 3081 3076 3072 3068 3064 3061 3058 3054 3050 3047 3044 3040 3037 3033 3030 3027 3023 3018 3014 3012 3009 3006 3004 3001 2999 2998 2996 2994
3099 3099 3096 3085 3084 3083 3084 3085 3085 3086 3086 3084 3083 3083 3082 3077 3075 3071 3066 3062 3058 3054 3053 3049 3044 3040 3036 3033 3030 3026 3023 3018 3014 3009 3005 3002 2999 2997 2995 2993 2991 2990 2988 2986
3099 3095 3087 3083 3081 3081 3081 3082 3081 3081 3081 3082 3081 3079 3079 3072 3067 3062 3059 3055 3052 3048 3044 3041 3037 3033 3029 3026 3022 3018 3014 3009 3005 3000 2997 2993 2990 2988 2985 2981 2981 2980 2979 2978
3096 3094 3085 3081 3080 3080 3080 3080 3078 3079 3080 3079 3076 3072 3072 3066 3061 3059 3054 3050 3047 3044 3039 3034 3030 3026 3022 3019 3014 3008 3004 2999 2995 2991 2987 2983 2980 2977 2975 2972 2970 2970 2969 2967
3092 3090 3081 3077 3077 3078 3081 3081 3076 3075 3074 3072 3069 3066 3064 3061 3057 3052 3048 3045 3042 3037 3033 3028 3024 3020 3016 3010 3005 3001 2997 2992 2987 2982 2978 2975 2971 2968 2965 2962 2960 2960 2959 2958
3087 3086 3079 3075 3075 3077 3075 3072 3073 3070 3068 3066 3063 3061 3058 3054 3052 3050 3047 3042 3038 3033 3030 3025 3019 3014 3011 3006 3001 2996 2990 2985 2979 2974 2969 2964 2960 2956 2954 2952 2950 2949 2949 2948
3082 3078 3072 3071 3071 3071 3070 3068 3066 3065 3061 3059 3057 3055 3052 3050 3047 3043 3039 3036 3032 3028 3025 3022 3015 3009 3004 3000 2994 2989 2983 2977 2972 2966 2961 2955 2950 2946 2944 2942 2941 2941 2941 2940
3074 3071 3068 3066 3065 3066 3063 3062 3060 3057 3055 3053 3051 3049 3047 3044 3040 3037 3034 3030 3025 3021 3017 3014 3010 3005 2998 2991 2987 2981 2975 2969 2964 2957 2951 2946 2942 2937 2934 2932 2931 2932 2932 2932
3064 3064 3062 3058 3058 3058 3056 3055 3053 3051 3050 3048 3046 3043 3040 3037 3034 3032 3028 3024 3018 3013 3007 3004 2999 2995 2990 2983 2976 2970 2965 2959 2953 2948 2942 2937 2933 2928 2926 2923 2922 2923 2923 2922
3057 3057 3055 3052 3052 3051 3049 3047 3046 3044 3043 3041 3038 3037 3033 3031 3028 3023 3018 3014 3007 3002 2997 2993 2988 2982 2979 2973 2966 2959 2953 2948 2944 2939 2933 2929 2925 2922 2919 2916 2915 2915 2914 2914
3050 3049 3050 3046 3045 3045 3043 3041 3040 3039 3037 3036 3034 3029 3026 3020 3017 3012 3007 3001 2995 2987 2981 2977 2973 2967 2965 2958 2952 2948 2941 2936 2932 2929 2925 2920 2917 2913 2910 2910 2908 2907 2906 2905
3041 3041 3041 3041 3039 3038 3036 3035 3034 3033 3031 3029 3026 3023 3018 3012 3006 3000 2994 2988 2982 2974 2967 2962 2956 2950 2945 2939 2933 2929 2925 2922 2920 2917 2914 2912 2908 2905 2902 2901 2899 2898 2897 2896
3033 3033 3032 3033 3033 3031 3030 3029 3028 3026 3024 3021 3018 3012 3007 3000 2993 2987 2980 2973 2964 2957 2951 2945 2938 2933 2928 2921 2916 2911 2909 2906 2905 2904 2902 2901 2899 2896 2894 2892 2890 2889 2888 2888
3028 3028 3028 3027 3027 3026 3024 3023 3020 3018 3015 3011 3007 3002 2996 2989 2981 2975 2968 2961 2951 2942 2937 2929 2922 2918 2911 2906 2900 2895 2894 2893 2892 2891 2890 2890 2889 2888 2885 2883 2882 2881 2880 2880
3024 3024 3023 3022 3022 3021 3019 3016 3013 3009 3005 3001 2995 2989 2983 2976 2968 2961 2953 2947 2938 2930 2923 2915 2906 2902 2898 2893 2887 2882 2880 2880 2880 2880 2878 2878 2878 2878 2877 2875 2873 2872 2872 2871
3018 3018 3017 3017 3015 3013 3011 3009 3005 3000 2996 2990 2983 2975 2969 2962 2954 2945 2938 2930 2923 2916 2910 2902 2896 2890 2885 2881 2876 2872 2870 2869 2868 2868 2867 2866 2867 2867 2867 2866 2865 2864 2862 2862
3012 3010 3009 3008 3006 3003 3000 2997 2995 2990 2985 2977 2969 2963 2956 2948 2938 2930 2922 2913 2908 2899 2895 2890 2885 2878 2873 2870 2866 2862 2859 2857 2857 2856 2855 2854 2854 2855 2856 2857 2857 2856 2855 2854
3004 3003 3002 2999 2997 2995 2991 2989 2984 2977 2972 2965 2958 2951 2943 2938 2931 2922 2914 2904 2900 2889 2883 2878 2873 2869 2864 2860 2856 2852 2848 2846 2844 2843 2842 2842 2842 2844 2845 2847 2848 2847 2847 2846
2997 2996 2993 2990 2987 2985 2981 2976 2971 2966 2960 2956 2948 2940 2933 2927 2921 2911 2902 2892 2891 2882 2876 2871 2865 2861 2856 2852 2848 2844 2840 2837 2834 2832 2831 2831 2831 2832 2833 2835 2837 2838 2839 2838
2988 2986 2983 2979 2976 2972 2970 2966 2962 2955 2949 2944 2938 2931 2923 2917 2909 2900 2896 2884 2880 2874 2868 2862 2858 2853 2849 2844 2839 2836 2833 2829 2826 2824 2822 2821 2821 2822 2822 2824 2827 2828 2830 2830
2978 2975 2971 2968 2965 2961 2958 2955 2951 2944 2939 2934 2927 2921 2914 2907 2899 2887 2881 2879 2872 2867 2861 2855 2850 2845 2840 2834 2829 2825 2822 2819 2817 2815 2813 2812 2812 2812 2813 2815 2817 2819 2821 2822
2966 2963 2957 2954 2950 2947 2944 2943 2938 2932 2928 2923 2917 2911 2904 2896 2890 2883 2874 2868 2862 2857 2851 2846 2841 2836 2830 2824 2819 2814 2810 2807 2805 2805 2804 2803 2804 2804 2805 2806 2808 2810 2811 2813
2951 2948 2945 2942 2938 2935 2932 2929 2923 2921 2917 2911 2906 2900 2895 2888 2879 2872 2865 2859 2853 2848 2843 2838 2832 2827 2821 2815 2810 2805 2801 2797 2795 2794 2794 2794 2794 2796 2797 2798 2800 2801 2803 2805
2938 2934 2930 2927 2924 2922 2918 2914 2910 2909 2905 2900 2895 2890 2885 2879 2872 2865 2858 2851 2845 2840 2834 2828 2821 2816 2810 2804 2799 2795 2791 2788 2785 2784 2785 2785 2786 2787 2789 2791 2792 2793 2795 2797
2923 2920 2915 2913 2913 2910 2906 2903 2901 2899 2895 2890 2884 2880 2874 2868 2862 2855 2849 2842 2836 2830 2823 2817 2811 2806 2799 2794 2789 2784 2781 2778 2776 2775 2775 2777 2778 2780 2782 2783 2784 2786 2788 2789